Weather History for KAOH - September, 2013

Change the Weather History Date:

Friday, September 20, 2013

  Actual Average (KFDY) Record (KFDY)
Temperature  
Mean Temperature 77 °F -  
Max Temperature 87 °F 73 °F 91 °F (1978)
Min Temperature 68 °F 53 °F 34 °F (1991)
Cooling Degree Days 12    
Growing Degree Days 27 (Base 50)    
Moisture  
Dew Point 67 °F    
Average Humidity 84    
Maximum Humidity 94    
Minimum Humidity 49    
Precipitation  
Precipitation 2.75 in - - ()
Sea Level Pressure  
Sea Level Pressure 29.84 in    
Wind  
Wind Speed 9 mph (SW)    
Max Wind Speed 17 mph    
Max Gust Speed 31 mph    
Visibility 4 miles    
Events Fog , Rain , Thunderstorm    
Averages and records for this station are not official NWS values.
T = Trace of Precipitation, MM = Missing Value Source: NWS Daily Summary

Daily Weather History Graph

Daily Weather History Graph

Search for Another Location

Airport or City:

Trip Planner

Search our weather history database for the weather conditions in past years. The results will help you decide how hot, cold, wet, or windy it might be!

Date:

Astronomy

Sep. 20, 2013 Rise Set
Actual Time 7:21 AM EDT 7:36 PM EDT
Civil Twilight 6:54 AM EDT 8:03 PM EDT
Nautical Twilight 6:22 AM EDT 8:35 PM EDT
Astronomical Twilight 5:49 AM EDT 9:08 PM EDT
Moon 8:08 PM EDT (9/20) 8:36 AM EDT (9/20)
Length of Visible Light 13h 09m
Length of Day
12h 14m
Full, 98% of the Moon is Illuminated
Sep 20
Full
Sep 26
Last Quarter
Oct 4
New
Oct 11
First Quarter
Oct 18
Full

Hourly Weather History & Observations

Time (EDT) Temp. Heat Index Dew Point Humidity Pressure Visibility Wind Dir Wind Speed Gust Speed Precip Events Conditions
12:53 AM 69.1 °F - 64.9 °F 87% 29.95 in 8.0 mi South 9.2 mph - N/A   Mostly Cloudy
1:53 AM 71.1 °F - 66.0 °F 84% 29.96 in 6.0 mi South 10.4 mph 17.3 mph 0.01 in   Haze
2:53 AM 71.1 °F - 66.9 °F 87% 29.95 in 5.0 mi South 8.1 mph - N/A   Mostly Cloudy
3:53 AM 71.1 °F - 66.9 °F 87% 29.92 in 5.0 mi South 8.1 mph - N/A   Clear
4:53 AM 71.1 °F - 66.9 °F 87% 29.91 in 5.0 mi SSW 8.1 mph - N/A   Clear
5:53 AM 71.1 °F - 66.0 °F 84% 29.91 in 6.0 mi SSW 9.2 mph - N/A   Haze
6:53 AM 71.1 °F - 66.0 °F 84% 29.91 in 6.0 mi SSW 10.4 mph - N/A   Haze
7:53 AM 71.1 °F - 66.0 °F 84% 29.91 in 5.0 mi SSW 9.2 mph - N/A   Haze
8:53 AM 72.0 °F - 66.0 °F 81% 29.91 in 6.0 mi SSW 10.4 mph - N/A   Haze
9:53 AM 75.9 °F - 66.9 °F 74% 29.90 in 10.0 mi SSW 10.4 mph 18.4 mph N/A   Clear
10:53 AM 79.0 °F - 66.9 °F 66% 29.89 in 10.0 mi SW 11.5 mph - N/A   Clear
11:53 AM 82.0 °F 84.5 °F 66.9 °F 60% 29.87 in 10.0 mi SW 11.5 mph - N/A   Clear
12:53 PM 84.0 °F 86.5 °F 66.9 °F 56% 29.85 in 10.0 mi SW 13.8 mph - N/A   Mostly Cloudy
1:53 PM 86.0 °F 88.2 °F 66.0 °F 51% 29.83 in 10.0 mi SW 13.8 mph - N/A   Scattered Clouds
2:53 PM 86.0 °F 88.2 °F 66.0 °F 51% 29.79 in 10.0 mi SW 15.0 mph 23.0 mph N/A   Scattered Clouds
3:53 PM 84.9 °F 86.1 °F 64.0 °F 49% 29.76 in 10.0 mi SSW 15.0 mph - N/A   Mostly Cloudy
4:11 PM 75.2 °F - 68.0 °F 78% 29.78 in 9.0 mi NW 9.2 mph 27.6 mph 0.00 in Rain , Thunderstorm Light Rain
4:34 PM 73.4 °F - 68.0 °F 83% 29.82 in 1.2 mi West 17.3 mph 31.1 mph 0.11 in Rain , Thunderstorm Heavy Thunderstorms and Rain
4:37 PM 71.6 °F - 68.0 °F 88% 29.81 in 0.5 mi West 17.3 mph 31.1 mph 0.23 in Fog , Rain , Thunderstorm Heavy Thunderstorms and Rain
4:44 PM 71.6 °F - 68.0 °F 88% 29.81 in 0.2 mi West 10.4 mph 24.2 mph 0.45 in Fog , Rain , Thunderstorm Heavy Thunderstorms and Rain
4:53 PM 72.0 °F - 69.1 °F 91% 29.78 in 0.8 mi NW 8.1 mph - 0.51 in Rain , Thunderstorm Rain
4:57 PM 71.6 °F - 69.8 °F 94% 29.80 in 2.0 mi NNW 8.1 mph - 0.00 in Rain , Thunderstorm Light Rain
4:59 PM 71.6 °F - 69.8 °F 94% 29.80 in 3.0 mi NNW 9.2 mph - 0.00 in Rain , Thunderstorm Light Rain
5:05 PM 71.6 °F - 68.0 °F 88% 29.80 in 6.0 mi NW 6.9 mph - 0.00 in   Overcast
5:16 PM 71.6 °F - 68.0 °F 88% 29.82 in 2.5 mi South 6.9 mph - 0.05 in Rain , Thunderstorm Rain
5:24 PM 71.6 °F - 68.0 °F 88% 29.83 in 1.0 mi South 6.9 mph - 0.13 in Rain , Thunderstorm Heavy Rain
5:27 PM 71.6 °F - 68.0 °F 88% 29.83 in 0.8 mi SSW 8.1 mph - 0.22 in Rain Heavy Rain
5:37 PM 71.6 °F - 68.0 °F 88% 29.83 in 0.8 mi South 5.8 mph - 0.35 in Rain , Thunderstorm Heavy Rain
5:45 PM 71.6 °F - 68.0 °F 88% 29.83 in 1.2 mi South 3.5 mph - 0.39 in Rain , Thunderstorm Rain
5:53 PM 72.0 °F - 68.0 °F 87% 29.82 in 1.0 mi SW 6.9 mph - 0.46 in Rain Heavy Rain
6:01 PM 71.6 °F - 69.8 °F 94% 29.84 in 0.5 mi SW 11.5 mph - 0.19 in Fog , Rain Heavy Rain
6:17 PM 71.6 °F - 68.0 °F 88% 29.84 in 1.0 mi SW 8.1 mph - 0.48 in Rain Heavy Rain
6:25 PM 71.6 °F - 68.0 °F 88% 29.84 in 0.8 mi SW 8.1 mph - 0.60 in Rain Heavy Rain
6:44 PM 71.6 °F - 68.0 °F 88% 29.83 in 0.5 mi South 6.9 mph - 0.87 in Fog , Rain Heavy Rain
6:48 PM 71.6 °F - 68.0 °F 88% 29.83 in 1.0 mi South 6.9 mph - 0.88 in Rain Rain
6:53 PM 71.1 °F - 69.1 °F 93% 29.82 in 3.0 mi SSE 10.4 mph - 0.88 in Rain Light Rain
7:01 PM 69.8 °F - 66.2 °F 88% 29.83 in 1.8 mi South 13.8 mph 19.6 mph 0.16 in Rain Heavy Rain
7:12 PM 69.8 °F - 66.2 °F 88% 29.82 in 3.0 mi SSW 5.8 mph - 0.22 in Rain Rain
7:21 PM 69.8 °F - 68.0 °F 94% 29.83 in 1.8 mi SW 6.9 mph - 0.34 in Rain Heavy Rain
7:41 PM 69.8 °F - 68.0 °F 94% 29.83 in 3.0 mi SSW 6.9 mph - 0.51 in Rain Rain
7:49 PM 69.8 °F - 66.2 °F 88% 29.83 in 2.5 mi WSW 6.9 mph - 0.57 in Rain Heavy Rain
7:53 PM 70.0 °F - 68.0 °F 93% 29.81 in 1.5 mi WSW 6.9 mph - 0.63 in Rain Heavy Rain
7:59 PM 69.8 °F - 68.0 °F 94% 29.83 in 2.0 mi WSW 4.6 mph - 0.01 in Rain Rain
8:08 PM 69.8 °F - 66.2 °F 88% 29.83 in 3.0 mi SW 6.9 mph - 0.04 in Rain Rain
8:22 PM 69.8 °F - 66.2 °F 88% 29.83 in 2.5 mi SW 6.9 mph - 0.10 in Rain Rain
8:32 PM 69.8 °F - 66.2 °F 88% 29.83 in 3.0 mi SW 8.1 mph - 0.12 in Rain Rain
8:53 PM 70.0 °F - 66.0 °F 87% 29.82 in 7.0 mi SW 5.8 mph - 0.14 in Rain Light Rain
9:53 PM 69.1 °F - 64.9 °F 87% 29.81 in 9.0 mi SW 5.8 mph - 0.09 in Rain Light Rain
10:53 PM 68.0 °F - 64.9 °F 90% 29.79 in 10.0 mi South 3.5 mph - 0.02 in Rain Light Rain
11:53 PM 68.0 °F - 64.9 °F 90% 29.77 in 8.0 mi SW 5.8 mph - 0.01 in Rain Light Rain